www.pogodaiklimat.ru

Погода и климат >> Архив погоды >> Канада >> Montreal-Est


ПОГОДА в Montreal-Est

  • Прогноз погоды в Montreal-Est
  • Монитор погоды в Montreal-Est
  • Климат города

АРХИВ ПОГОДЫ в Montreal-Est

Время (UTC), дата Ветер
(напр.,м/с)
 
Видим.   Явления Облачность Т
(С)
Тd
(С)
f
(%)
Тe
(С)
Тes
(С)
Комфортность P
(гПа)
Po
(гПа)
Тmin
(С)
Tmax
(С)
R
(мм)
R24
(мм)
S
(см)
00 7.12 ЮЗ 2 16 км ясно -25.7 -28.3 79 -33 -33 опасность
обморожения
1024.7 994.6 -31.2 -22.8
03 7.12 З 3 16 км ясно -25.1 -27.6 80 -34 -34 опасность
обморожения
1023.8 993.8
06 7.12 ЮЗ 3 16 км слаб. снег 10/10 300 м
[]
-22.0 -24.3 82 -30 -30 1022.9 993.2 -31.2 -21.7
09 7.12 З 4 16 км слаб. снег 10/10 300 м
[]
-19.7 -22.0 82 -28 -28 1021.9 992.4
12 7.12 ЮЗ 5 16 км слаб. снег 10/10 1000 м
[]
-18.3 -20.2 85 -28 -28 1020.9 991.4 -25.9 -21.7
15 7.12 З 4 16 км слаб. снег 10/10 1000 м
[]
-16.3 -18.3 84 -25 -25 1020.5 991.1
18 7.12 З 5 11 км слаб. снег 10/10 1000 м
[]
-14.0 -16.2 83 -22 -22 1019.7 990.5 -25.9 -14.0
21 7.12 ЮЗ 4 3200 м слаб. снег 10/10 600 м
[]
-12.9 -14.6 87 -20 -20 1018.3 989.3
00 8.12 З 5 14 км слаб. снег 10/10 1000 м
[]
-11.3 -13.1 87 -19 -19 1018.5 989.6 -22.1 -11.3
03 8.12 СЗ 5 16 км слаб. снег 10/10 1000 м
[]
-10.8 -12.4 88 -19 -19 1020.0 991.1
06 8.12 З 4 16 км слаб. снег 10/10 1000 м
[]
-11.4 -12.7 90 -18 -18 1022.0 993.1 -22.1 -10.8
09 8.12 З 3 16 км слаб. снег 10/10 600 м
[]
-11.2 -12.5 90 -17 -17 1023.3 994.4
12 8.12 ЮЗ 3 16 км 9/9 600 м
[]
-12.2 -13.9 87 -18 -18 1022.0 993.2 -12.2 -10.8
15 8.12 Ю 3 16 км 9/0
[]
-12.9 -14.6 87 -19 -18 1019.4 990.6
18 8.12 ЮЗ 5 16 км 3/0
[]
-9.3 -11.5 84 -17 -16 1015.7 987.1 -15.0 -9.2
21 8.12 З 6 16 км 10/0
[]
-8.4 -11.0 81 -17 -17 1012.5 984.1
00 9.12 СЗ 6 3200 м слаб. снег 10/10 300 м
[]
-8.5 -10.2 87 -17 -17 1014.3 985.8 -15.0 -8.1
03 9.12 СЗ 6 16 км слаб. снег 10/10 300 м
[]
-9.6 -11.5 86 -18 -18 1016.3 987.7
06 9.12 СЗ 5 8000 м слаб. снег 10/10 300 м
[]
-10.4 -12.2 87 -18 -18 1018.3 989.7 -15.0 -8.1 22
09 9.12 СЗ 5 16 км слаб. снег 10/10 300 м
[]
-10.8 -12.9 84 -18 -18 1019.7 991.1
12 9.12 СЗ 3 16 км слаб. снег 10/10 300 м
[]
-11.2 -13.4 84 -17 -17 1021.5 992.8 -11.2 -8.1
15 9.12 С 2 16 км слаб. снег 10/10 300 м
[]
-12.8 -14.4 88 -17 -17 1022.6 993.8
18 9.12 Ю 2 16 км 5/0
[]
-12.4 -14.4 85 -16 -14 1022.2 993.4 -12.9 -10.4
21 9.12 Ю 2 16 км 9/0
[]
-13.0 -14.8 86 -18 -18 1021.1 992.3
00 10.12 Ю 3 16 км 9/0
[]
-14.6 -16.0 89 -21 -21 1019.6 990.8 -14.6 -11.2
03 10.12 ЮВ 2 16 км ясно -15.3 -16.5 90 -20 -20 1017.5 988.6
06 10.12 ЮВ 3 16 км 9/0
[]
-14.9 -16.3 89 -21 -21 1015.9 987.1 -15.3 -10.4 7
09 10.12 Ю 3 16 км 10/0
[]
-16.1 -17.6 88 -22 -22 1014.3 985.5
12 10.12 ЮВ 2 16 км 3/0
[]
-18.3 -19.6 89 -23 -23 1013.8 984.9 -19.8 -10.4
15 10.12 С 1 4800 м слаб. снег 10/10 100 м
[]
-15.9 -17.5 87 -16 -16 1015.0 986.1
18 10.12 Ю 1 6000 м слаб. снег 10/10 200 м
[]
-12.6 -13.9 90 -13 -13 1014.6 985.8 -19.8 -12.6
21 10.12 В 2 9000 м слаб. снег 10/10 300 м
[]
-11.9 -13.2 90 -17 -17 1015.7 986.9
00 11.12 СВ 2 16 км слаб. снег 10/10 300 м
[]
-12.7 -14.0 90 -16 -16 1017.6 988.6 -19.8 -11.5
03 11.12 С 2 16 км слаб. снег 10/10 300 м
[]
-12.6 -13.8 91 -16 -16 1018.4 989.5
06 11.12 СВ 1 9000 м слаб. снег 10/10 300 м
[]
-12.1 -13.2 91 -14 -14 1018.6 989.8 -19.8 -11.5
09 11.12 ЮВ 2 16 км слаб. снег 10/10 300 м
[]
-11.9 -12.8 93 -16 -16 1019.0 990.2
12 11.12 ЮВ 3 16 км слаб. снег 10/10 300 м
[]
-11.3 -12.8 89 -17 -17 1019.1 990.3 -12.7 -11.5
15 11.12 Ю 5 16 км слаб. снег 10/10 300 м
[]
-10.9 -11.7 94 -19 -19 1018.4 989.7
18 11.12 Ю 6 16 км слаб. снег 10/10 200 м
[]
-9.6 -11.1 89 -18 -18 1016.7 988.1 -12.8 -9.6
21 11.12 Ю 6 16 км слаб. снег 10/10 300 м
[]
-9.2 -10.7 89 -18 -18 1015.0 986.4
00 12.12 Ю 5 16 км 10/10 200 м
[]
-9.0 -9.5 96 -17 -17 1014.1 985.6 -12.1 -9.0
03 12.12 Ю 6 16 км 10/10 200 м
[]
-9.1 -9.2 99 -18 -18 1012.5 984.0
06 12.12 Ю 6 16 км 10/10 200 м
[]
-9.2 -9.2 100 -18 -18 1010.8 982.4 -12.1 -9.0 17
09 12.12 Ю 6 16 км 9/9 200 м
[]
-9.7 -10.0 98 -18 -18 1009.5 981.2
12 12.12 Ю 5 16 км 10/10 1000 м
[]
-9.3 -10.0 95 -17 -17 1008.4 980.1 -10.1 -9.0
15 12.12 Ю 5 16 км слаб. снег 10/10 1000 м
[]
-8.3 -9.8 89 -16 -16 1007.8 979.6
18 12.12 Ю 5 8000 м слаб. снег 10/10 300 м
[]
-6.3 -7.7 90 -14 -14 1006.5 978.3 -10.1 -6.3
21 12.12 Ю 4 16 км 10/10 300 м
[]
-4.8 -5.8 93 -11 -11 1005.9 977.8
00 13.12 ЮЗ 4 16 км 10/10 300 м
[]
-4.4 -6.0 89 -11 -11 1006.8 978.7 -10.1 -4.4
03 13.12 ЮЗ 5 16 км 10/10 300 м
[]
-4.4 -5.1 95 -12 -12 1006.8 978.7
06 13.12 ЮЗ 6 16 км 10/10 300 м
[]
-4.4 -4.8 97 -12 -12 1006.7 978.7 -10.1 -4.1 2
09 13.12 ЮЗ 5 16 км 10/10 300 м
[]
-4.3 -4.8 96 -11 -11 1006.5 978.5
12 13.12 Ю 4 4800 м слаб. снег 10/10 600 м
[]
-3.7 -3.7 100 -10 -10 1006.0 978.1 -4.5 -4.1
15 13.12 ЮЗ 5 4000 м слаб. снег 10/10 600 м
[]
-2.8 -2.8 100 -10 -10 1005.8 977.9
18 13.12 ЮЗ 5 16 км слаб. снег {осадки} 10/10 300 м
[]
-1.9 -1.9 100 -9 -9 1005.3 977.5 -6.3 -1.9 0.3
21 13.12 З 4 16 км 10/10 300 м
[]
-1.7 -2.0 98 -7 -7 1005.5 977.7

 

Местоположение метеостанции Montreal-Est (Канада): широта 45.55 долгота -73.55 высота над уровнем моря 51 м.

В архиве по умолчанию представлена погода в Montreal-Est за последнюю неделю. Архивные данные за месяц целиком и за предыдущие месяцы, начиная с января 2011 года, Вы можете получить, выбрав интересующий диапазон дат из раскрывающегося списка и нажав кнопку "Ввод!".


*Определитесь, кто Вы:
робот инопланетянин человек

Внимание! Время в таблицах - всемирное. Для получения местного времени необходимо прибавить поправку, которая в Montreal-Est равна -5 ч.

Смотрите также архив погоды в соседних городах и на ближайших метеорологических станциях:

Погода в Mctavish (Канада) (6 км)
Погода в Saint Hubert Arpt (Канада) (11 км)
Погода в Montreal (Канада) (18 км)
Погода в Varennes (Канада) (23 км)
Погода в Lassomption Cda (Канада) (31 км)
Погода в L`acadie (Канада) (32 км)
Погода в Ste Anne de Bellevu (Канада) (32 км)
Погода в Ste Clotilde (Канада) (43 км)
Погода в Riguad 2 (Канада) (58 км)
Погода в Saint Polycarpe (Канада) (65 км)

Пояснения к столбцам:

Ветер - указаны скорость ветра в м/с - средняя за 10 мин, порывы в срок и между сроками (в фигурных скобках) и направление, откуда дует ветер: С - северный, СВ - северо-восточный, В - восточный, ЮВ - юго-восточный, Ю - южный, ЮЗ - юго-западный, З - западный, СЗ - северо-западный.
Видимость - горизонтальная дальность видимости в метрах или километрах. При видимости от 1 до 10 км при отсутствии осадков обычно наблюдается дымка, при ухудшении видимости до 1 км и менее - туман. В сухую погоду видимость может ухудшаться дымом, пылью или мглою.
Явления - указаны атмосферные явления, наблюдавшиеся в срок или в последний час перед сроком; фигурными скобками обозначены явления, наблюдавшиеся между сроками (за 1-3 часа до срока); квадратными скобками обозначены град или гололедные отложения с указанием их диаметра в мм.
Облачность - указаны через наклонную черту общая и нижняя облачность в баллах и высота нижней границы облаков в метрах; квадратными скобками обозначены формы облаков: Ci - перистые, Cs - перисто-слоистые, Cc - перисто-кучевые, Ac - высококучевые, As - высокослоистые, Sc - слоисто-кучевые, Ns - слоисто-дождевые, Cu - кучевые, Cb - кучево-дождевые. Подробнее классификацию облаков см. в Атласе облаков (PDF).
T - Температура воздуха - температура, измеренная на высоте 2 м над землей.
Td - Температура точки росы - температура, при понижении до которой содержащийся в воздухе водяной пар достигнет насыщения.
f - Относительная влажность воздуха - влажноcть воздуха, измеренная на высоте 2 м над землей.
Te - Эффективная температура - температура, которую ощущает одетый по сезону человек в тени. Характеристика душности погоды. При расчете учитывается влияние влажности воздуха и скорости ветра на теплоощущения человека.
Tes - Эффективная температура на солнце - температура, которую ощущает человек, с поправкой на солнечный нагрев. Характеристика знойности погоды. Зависит от высоты солнца над горизонтом, облачности и скорости ветра. Ночью, в пасмурную погоду, а также при ветре 12 м/с и более поправка равна нулю.
P - Атмосферное давление - приведенное к уровню моря атмосферное давление.
Po - Атмосферное давление - измеренное на уровне метеостанции атмосферное давление.
Tmin - Минимальная температура - минимум температуры воздуха на высоте 2 м над землей.
Tmax - Максимальная температура - максимум температуры воздуха на высоте 2 м над землей.
R - Количество осадков - Количество выпавших осадков за период времени, мм. При наведении курсора мыши на число - период времени, за который выпало указанное количество осадков.
R24 - Количество осадков - Количество выпавших осадков за 24 часа, мм.
S - Снежный покров - Высота снежного покрова, см. При наведении курсора мыши на число - состояние снежного покрова и степень покрытия местности в баллах.